Location: Unspecified
(0.0000°N, 0.0000°E)
Time: 11:25:12
(UTC+00:00)

Vanguard 2 Rocket - Pass Details

Date: 23 November 2019
Orbit: 554 x 3326 km, 32.9° (Epoch: 08 December)

Event Time Altitude Azimuth Distance (km) Brightness Sun altitude
Rises 12:09:40 0° 249° (WSW) 6,757 11.5 68.9°
Reaches altitude 10° 12:16:12 10° 233° (SW) 6,059 11.5 68.4°
Maximum altitude 12:29:11 20° 192° (SSW) 5,421 11.6 67.1°
Drops below altitude 10° 12:42:03 10° 150° (SSE) 5,957 11.4 65.5°
Sets 12:48:29 0° 134° (SE) 6,611 11.3 64.6°
